This is the latest recevied weather packets stored in our database for station/object W1LBM. If no packets are shown the sender has not sent any weather packets the latest 10 day(s).
| Time | Temp. | Humidity | Pressure | Rain* | Wind** | Luminosity | Snow |
|---|---|---|---|---|---|---|---|
| 1777783853 | 8.33° C | 64% | 1012.7 hPa | 0 mm | - | 0 W/m² | - |
| 1777783549 | 8.33° C | 64% | 1012.9 hPa | 0 mm | - | 0 W/m² | - |
| 1777783247 | 8.89° C | 63% | 1013 hPa | 0 mm | - | 0 W/m² | - |
| 1777782943 | 8.89° C | 61% | 1013.2 hPa | 0 mm | - | 0 W/m² | - |
| 1777782640 | 8.89° C | 61% | 1012.8 hPa | 0 mm | - | 0 W/m² | - |
| 1777782337 | 8.89° C | 61% | 1013 hPa | 0 mm | - | 0 W/m² | - |
| 1777782033 | 8.89° C | 62% | 1013 hPa | 0 mm | - | 0 W/m² | - |
| 1777781730 | 8.89° C | 65% | 1013 hPa | 0 mm | - | 0 W/m² | - |
| 1777781428 | 8.89° C | 69% | 1013.1 hPa | 0 mm | - | 0 W/m² | - |
| 1777781125 | 8.89° C | 72% | 1013.2 hPa | 0 mm | - | 0 W/m² | - |
| 1777780822 | 8.89° C | 72% | 1013.5 hPa | 0 mm | - | 0 W/m² | - |
| 1777780519 | 8.89° C | 81% | 1013.3 hPa | 0 mm | - | 0 W/m² | - |
| 1777780216 | 8.89° C | 83% | 1013.4 hPa | 0 mm | - | 0 W/m² | - |
| 1777779914 | 8.89° C | 87% | 1013.3 hPa | 0 mm | - | 0 W/m² | - |
| 1777779610 | 8.89° C | 89% | 1013 hPa | 0 mm | - | 0 W/m² | - |
| 1777779308 | 8.89° C | 89% | 1013 hPa | 0 mm | - | 0 W/m² | - |
| 1777779006 | 8.89° C | 89% | 1013.1 hPa | 0 mm | - | 0 W/m² | - |
| 1777778704 | 8.89° C | 89% | 1013.1 hPa | 0 mm | - | 0 W/m² | - |
| 1777778401 | 8.89° C | 90% | 1013.2 hPa | 0 mm | - | 0 W/m² | - |
| 1777778099 | 8.89° C | 92% | 1013.2 hPa | 0 mm | - | 0 W/m² | - |
| 1777777795 | 8.89° C | 94% | 1013.1 hPa | 0 mm | - | 0 W/m² | - |
| 1777777492 | 8.89° C | 96% | 1013.2 hPa | 0 mm | - | 0 W/m² | - |
| 1777777189 | 8.89° C | 96% | 1013.5 hPa | 0 mm | - | 0 W/m² | - |
| 1777776886 | 8.89° C | 96% | 1013.4 hPa | 0 mm | - | 0 W/m² | - |
| 1777776583 | 8.89° C | 96% | 1013.5 hPa | 0 mm | - | 0 W/m² | - |
* Rain latest hour (hover to see other rain measurements)
** Current wind speed in m/s (hover to see current wind gust speed)